This is the latest recevied weather packets stored in our database for station/object KB9PVH-3. If no packets are shown the sender has not sent any weather packets the latest 10 day(s).
| Time | Temp. | Humidity | Pressure | Rain* | Wind** | Luminosity | Snow |
|---|---|---|---|---|---|---|---|
| 1777621107 | 3.33° C | 92% | 1017.2 hPa | 0 mm | - | - | - |
| 1777620059 | 3.33° C | 92% | 1017.2 hPa | 0 mm | - | - | - |
| 1777619007 | 3.33° C | 91% | 1017.3 hPa | 0 mm | - | - | - |
| 1777617957 | 3.33° C | 89% | 1017.5 hPa | 0 mm | - | - | - |
| 1777616907 | 3.89° C | 90% | 1017.6 hPa | 0 mm | - | - | - |
| 1777614807 | 3.89° C | 89% | 1017.4 hPa | 0 mm | - | - | - |
| 1777613757 | 3.89° C | 89% | 1017.3 hPa | 0 mm | - | - | - |
| 1777611687 | 3.33° C | 88% | 1017.2 hPa | 0 mm | - | - | - |
| 1777609587 | 4.44° C | 88% | 1016.9 hPa | 0 mm | - | - | - |
| 1777607487 | 4.44° C | 86% | 1017 hPa | 0 mm | - | - | - |
| 1777606436 | 4.44° C | 86% | 1017.3 hPa | 0 mm | - | - | - |
| 1777604336 | 4.44° C | 86% | 1017.1 hPa | 0 mm | - | - | - |
| 1777603287 | 5° C | 85% | 1017 hPa | 0 mm | - | - | - |
| 1777602238 | 5° C | 86% | 1016.9 hPa | 0 mm | - | - | - |
| 1777601190 | 5.56° C | 88% | 1016.8 hPa | 0.51 mm | - | - | - |
| 1777600136 | 5.56° C | 83% | 1016.6 hPa | 1.27 mm | - | - | - |
| 1777599090 | 6.11° C | 81% | 1016.7 hPa | 0.51 mm | - | - | - |
| 1777598038 | 6.67° C | 80% | 1016.4 hPa | 0.51 mm | - | - | - |
| 1777596986 | 6.67° C | 76% | 1016.3 hPa | 0 mm | - | - | - |
| 1777595940 | 7.22° C | 74% | 1016.1 hPa | 0 mm | - | - | - |
| 1777594886 | 7.22° C | 73% | 1015.9 hPa | 0 mm | - | - | - |
| 1777593836 | 7.78° C | 73% | 1015.8 hPa | 0 mm | - | - | - |
| 1777592798 | 7.78° C | 71% | 1015.4 hPa | 0 mm | - | - | - |
| 1777591736 | 8.33° C | 69% | 1015.7 hPa | 0 mm | - | - | - |
| 1777590690 | 8.33° C | 69% | 1015.4 hPa | 0 mm | - | - | - |
* Rain latest hour (hover to see other rain measurements)
** Current wind speed in m/s (hover to see current wind gust speed)